Total_Precipitation_Accumulation
0.30 0.41 0.52 0.59 0.64 0.62 0.57 0.65 0.77 0.84 0.88 0.84 0.82 0.95 1.03 0.92 1.15 1.38 1.43 1.74 1.88 1.91 2.00 1.78 1.51 1.48 1.30 1.07 0.83 0.71 0.67 0.59 0.49 0.33 0.21 0.15 0.11 0.10 0.09 0.04 0.01 0.01 0.02
0.35 0.51 0.47 0.40 0.39 0.39 0.41 0.45 0.56 0.75 0.78 0.65 0.63 0.63 0.81 0.91 0.80 0.76 0.83 0.99 1.01 0.92 0.85 0.83 0.93 0.95 0.83 0.81 0.88 0.83 0.75 0.63 0.59 0.39 0.20 0.12 0.07 0.04 0.04 0.03 0.01 0.00 0.00
0.37 0.43 0.45 0.39 0.28 0.20 0.21 0.27 0.30 0.31 0.32 0.24 0.19 0.20 0.30 0.52 0.66 0.65 0.61 0.62 0.64 0.57 0.49 0.38 0.28 0.24 0.26 0.24 0.21 0.19 0.22 0.30 0.33 0.27 0.11 0.04 0.03 0.01 0.01 0.01 0.00 0.00 0.00
0.24 0.27 0.29 0.25 0.23 0.20 0.21 0.22 0.24 0.24 0.20 0.17 0.18 0.20 0.23 0.21 0.17 0.12 0.11 0.14 0.22 0.27 0.24 0.24 0.22 0.16 0.15 0.14 0.13 0.09 0.06 0.03 0.02 0.02 0.01 0.01 0.01 0.01 0.01 0.01 0.00 0.00 0.00
0.29 0.37 0.47 0.61 0.57 0.45 0.35 0.29 0.24 0.18 0.19 0.17 0.17 0.22 0.26 0.30 0.35 0.33 0.29 0.23 0.18 0.17 0.14 0.11 0.10 0.09 0.08 0.06 0.03 0.01 0.01 0.01 0.02 0.03 0.02 0.01 0.00 0.00 0.01 0.01 0.01 0.00 0.00
0.31 0.38 0.47 0.48 0.47 0.47 0.44 0.41 0.38 0.36 0.35 0.32 0.32 0.34 0.35 0.35 0.34 0.33 0.33 0.29 0.23 0.16 0.11 0.07 0.05 0.04 0.04 0.03 0.01 0.01 0.01 0.01 0.01 0.00 0.01 0.01 0.00 0.01 0.00 0.00 0.01 0.01 0.00
0.30 0.43 0.50 0.50 0.51 0.65 0.66 0.58 0.48 0.41 0.33 0.30 0.30 0.29 0.26 0.24 0.19 0.15 0.12 0.07 0.03 0.02 0.01 0.01 0.02 0.02 0.02 0.01 0.00 0.00 0.01 0.01 0.01 0.00 0.01 0.00 0.01 0.01 0.01 0.01 0.01 0.01 0.01
0.23 0.32 0.42 0.51 0.55 0.56 0.47 0.40 0.32 0.28 0.30 0.30 0.26 0.24 0.20 0.14 0.09 0.05 0.04 0.01 0.00 0.00 0.00 0.00 0.00 0.00 0.00 0.00 0.00 0.00 0.00 0.00 0.00 0.00 0.00 0.00 0.00 0.00 0.01 0.01 0.02 0.02 0.01
0.31 0.37 0.42 0.39 0.39 0.37 0.31 0.27 0.27 0.28 0.27 0.22 0.16 0.07 0.03 0.02 0.01 0.00 0.00 0.00 0.00 0.00 0.00 0.00 0.00 0.00 0.00 0.00 0.00 0.00 0.00 0.00 0.00 0.00 0.00 0.01 0.00 0.00 0.00 0.01 0.02 0.03 0.03
0.28 0.32 0.35 0.38 0.37 0.36 0.39 0.38 0.30 0.22 0.12 0.04 0.01 0.01 0.00 0.00 0.00 0.00 0.00 0.00 0.00 0.00 0.00 0.00 0.00 0.00 0.00 0.00 0.00 0.00 0.00 0.00 0.00 0.00 0.00 0.01 0.01 0.01 0.01 0.01 0.03 0.06 0.05
0.29 0.28 0.26 0.27 0.29 0.30 0.27 0.22 0.12 0.05 0.02 0.01 0.00 0.00 0.00 0.00 0.00 0.00 0.00 0.00 0.00 0.00 0.00 0.00 0.00 0.00 0.01 0.01 0.01 0.00 0.01 0.00 0.01 0.00 0.00 0.01 0.01 0.00 0.01 0.01 0.02 0.06 0.10
0.38 0.40 0.47 0.50 0.50 0.42 0.27 0.14 0.06 0.02 0.01 0.00 0.00 0.00 0.00 0.00 0.00 0.00 0.00 0.00 0.00 0.00 0.00 0.00 0.00 0.00 0.00 0.01 0.00 0.01 0.01 0.01 0.01 0.02 0.02 0.02 0.02 0.02 0.02 0.02 0.03 0.04 0.05
0.57 0.64 0.59 0.46 0.30 0.17 0.10 0.05 0.02 0.00 0.00 0.00 0.00 0.00 0.00 0.00 0.00 0.00 0.00 0.00 0.00 0.00 0.00 0.00 0.00 0.00 0.00 0.00 0.00 0.01 0.01 0.01 0.03 0.04 0.04 0.03 0.03 0.03 0.03 0.03 0.04 0.04 0.05
0.84 0.64 0.39 0.23 0.15 0.08 0.04 0.01 0.01 0.00 0.00 0.00 0.01 0.00 0.00 0.00 0.00 0.01 0.00 0.00 0.00 0.00 0.00 0.01 0.00 0.00 0.01 0.01 0.01 0.01 0.01 0.02 0.05 0.07 0.06 0.04 0.03 0.04 0.04 0.05 0.07 0.06 0.10
0.38 0.24 0.15 0.11 0.07 0.04 0.02 0.01 0.01 0.01 0.00 0.01 0.01 0.01 0.01 0.02 0.01 0.01 0.00 0.00 0.00 0.00 0.00 0.01 0.01 0.01 0.01 0.01 0.01 0.01 0.01 0.02 0.04 0.04 0.07 0.07 0.05 0.05 0.04 0.05 0.11 0.11 0.15
0.16 0.11 0.07 0.05 0.02 0.01 0.00 0.00 0.00 0.00 0.00 0.00 0.00 0.00 0.00 0.00 0.00 0.00 0.00 0.00 0.00 0.00 0.00 0.01 0.02 0.02 0.02 0.02 0.03 0.03 0.02 0.04 0.04 0.07 0.08 0.08 0.11 0.10 0.08 0.07 0.12 0.14 0.13
0.11 0.08 0.04 0.02 0.00 0.00 0.00 0.00 0.00 0.00 0.00 0.00 0.00 0.00 0.00 0.00 0.00 0.00 0.00 0.00 0.00 0.00 0.01 0.01 0.02 0.03 0.03 0.03 0.05 0.06 0.07 0.04 0.07 0.12 0.14 0.15 0.15 0.13 0.13 0.12 0.12 0.14 0.12
0.07 0.04 0.01 0.00 0.00 0.00 0.00 0.00 0.00 0.00 0.00 0.00 0.00 0.00 0.00 0.00 0.00 0.00 0.00 0.00 0.00 0.00 0.01 0.03 0.05 0.05 0.05 0.06 0.06 0.08 0.08 0.08 0.13 0.16 0.19 0.17 0.17 0.18 0.15 0.14 0.15 0.16 0.16
0.01 0.00 0.00 0.00 0.00 0.00 0.00 0.00 0.00 0.00 0.00 0.00 0.00 0.00 0.00 0.00 0.00 0.00 0.00 0.00 0.01 0.02 0.02 0.03 0.03 0.05 0.06 0.08 0.10 0.13 0.18 0.19 0.22 0.22 0.19 0.18 0.17 0.20 0.13 0.12 0.15 0.13 0.16
0.01 0.01 0.00 0.00 0.00 0.00 0.00 0.00 0.00 0.00 0.00 0.00 0.00 0.00 0.00 0.00 0.00 0.00 0.00 0.00 0.01 0.02 0.02 0.03 0.03 0.05 0.07 0.11 0.14 0.17 0.18 0.19 0.18 0.17 0.17 0.18 0.18 0.20 0.22 0.19 0.19 0.23 0.19
0.00 0.00 0.00 0.00 0.00 0.00 0.00 0.00 0.00 0.00 0.00 0.00 0.00 0.00 0.00 0.00 0.00 0.00 0.00 0.00 0.01 0.02 0.04 0.05 0.05 0.06 0.07 0.10 0.13 0.16 0.18 0.18 0.20 0.22 0.22 0.22 0.23 0.23 0.22 0.29 0.32 0.33 0.31
0.00 0.00 0.00 0.00 0.00 0.00 0.00 0.00 0.00 0.00 0.00 0.00 0.00 0.00 0.00 0.00 0.00 0.00 0.00 0.00 0.00 0.01 0.04 0.08 0.07 0.10 0.14 0.16 0.16 0.16 0.14 0.14 0.16 0.19 0.22 0.25 0.27 0.28 0.30 0.33 0.36 0.36 0.33
0.00 0.00 0.00 0.00 0.00 0.00 0.00 0.00 0.00 0.00 0.00 0.00 0.00 0.00 0.00 0.00 0.00 0.00 0.00 0.00 0.00 0.01 0.03 0.07 0.09 0.09 0.10 0.14 0.17 0.21 0.22 0.17 0.19 0.29 0.31 0.25 0.26 0.33 0.32 0.35 0.34 0.34 0.31
0.00 0.00 0.00 0.00 0.00 0.00 0.00 0.00 0.00 0.00 0.00 0.00 0.00 0.00 0.00 0.00 0.00 0.00 0.00 0.00 0.00 0.01 0.03 0.06 0.09 0.12 0.11 0.11 0.14 0.17 0.23 0.28 0.30 0.31 0.39 0.35 0.27 0.31 0.34 0.33 0.29 0.32 0.31
0.00 0.00 0.00 0.00 0.00 0.00 0.00 0.00 0.00 0.00 0.00 0.00 0.00 0.00 0.00 0.00 0.00 0.00 0.00 0.00 0.00 0.00 0.02 0.06 0.09 0.09 0.09 0.11 0.14 0.16 0.20 0.25 0.35 0.38 0.37 0.39 0.35 0.31 0.31 0.35 0.32 0.34 0.33
0.00 0.00 0.00 0.00 0.00 0.00 0.00 0.00 0.00 0.00 0.00 0.00 0.00 0.00 0.00 0.00 0.00 0.00 0.00 0.00 0.00 0.00 0.01 0.04 0.05 0.05 0.06 0.07 0.09 0.12 0.14 0.18 0.24 0.32 0.40 0.35 0.33 0.35 0.39 0.37 0.33 0.30 0.25